Home   Weather   Harrisburg   Past weeks

Flag for USA Past Weather in Harrisburg, Pennsylvania, USA — Yesterday and Last 2 Weeks

Now
71 °F

Overcast.


Feels Like: 72 °F
Forecast: 69 / 84 °F
Wind: 5 mph from East

Location: Capital City Airport

Current Time: Jul 27, 2017 at 4:53:38 am

Latest Report: Jul 27, 2017 at 4:12 am


Visibility: 10 mi

Pressure: 30.04 "Hg

Humidity: 78%

Dew Point: 64 °F

Location of HarrisburgLocation

Past Weather in Harrisburg — Graph

°F

Harrisburg Temperature Yesterday

Maximum temperature yesterday: 82 °F (at 3:56 pm)
Minimum temperature yesterday: 61 °F (at 5:56 am)
Average temperature yesterday: 72 °F

High & Low Weather Summary for the Past Weeks

 TemperatureHumidityPressure
High93 °F (Jul 19, 3:56 pm)91% (Jul 14, 7:25 am)30.25 "Hg (Jul 14, 7:25 am)
Low61 °F (Jul 26, 5:56 am)40% (Jul 19, 3:56 pm)29.71 "Hg (Jul 24, 4:56 am)
Average78 °F69%29.97 "Hg
* Reported Jul 12 2:56 am — Jul 27 2:56 am, Harrisburg. Weather by CustomWeather, © 2017

Note: Actual official high and low records may vary slightly from our data, if they occured in-between our weather recording intervals... More about our weather records

Advertising

Harrisburg Weather History for the Previous 24 Hours

Scroll right to see more
 ConditionsComfort  
Time TempWeatherWind HumidityBarometerVisibility
2:56 am
Thu, Jul 27
71 °FMostly cloudy.6 mph78%30.06 "Hg10 mi
2:43 am71 °FPassing clouds.6 mph78%30.07 "Hg10 mi
2:06 am71 °FMostly cloudy.7 mph78%30.09 "Hg10 mi
1:56 am71 °FOvercast.6 mph78%30.08 "Hg10 mi
12:56 am72 °FPassing clouds.6 mph76%30.09 "Hg10 mi
11:56 pm
Wed, Jul 26
72 °FClear.6 mph76%30.09 "Hg10 mi
10:56 pm74 °FClear.5 mph71%30.10 "Hg10 mi
9:56 pm74 °FClear.6 mph71%30.10 "Hg10 mi
8:56 pm76 °FPassing clouds.7 mph67%30.09 "Hg10 mi
7:56 pm78 °FPassing clouds.7 mph60%30.08 "Hg10 mi
6:56 pm81 °FScattered clouds.8 mph53%30.09 "Hg10 mi
5:56 pm82 °FScattered clouds.6 mph46%30.10 "Hg10 mi
4:56 pm82 °FScattered clouds.6 mph46%30.11 "Hg10 mi
3:56 pm82 °FPassing clouds.6 mph49%30.14 "Hg10 mi
2:56 pm80 °FPartly sunny.9 mph54%30.15 "Hg10 mi
1:56 pm79 °FBroken clouds.7 mph52%30.17 "Hg10 mi
12:56 pm78 °FBroken clouds.N/A54%30.19 "Hg10 mi
11:56 am77 °FBroken clouds.No wind56%30.21 "Hg10 mi
10:56 am75 °FBroken clouds.3 mph60%30.22 "Hg10 mi
9:56 am74 °FPartly sunny.3 mph67%30.23 "Hg10 mi
8:56 am70 °FPartly sunny.3 mph73%30.24 "Hg10 mi
8:38 am70 °FPartly sunny.No wind71%30.25 "Hg10 mi
7:56 am67 °FBroken clouds.No wind76%30.24 "Hg10 mi
6:56 am63 °FOvercast.No wind87%30.23 "Hg10 mi
6:31 am61 °FPartly sunny.No wind90%30.22 "Hg10 mi
5:56 am61 °FPassing clouds.No wind90%30.22 "Hg10 mi
5:18 am62 °FPassing clouds.No wind86%30.21 "Hg10 mi
4:56 am63 °FOvercast.No wind84%30.21 "Hg10 mi
4:40 am62 °FPassing clouds.3 mph86%30.21 "Hg10 mi
Weather by CustomWeather, © 2017

See weather overviewHow to use our weather pages